CW4629 Weather Reports


Display with metric or nautical units.
time (UTC)temp
F
wind
direction
speed
MPH
gust
MPH
rain 1hr
in
rain 24hr
in
rain mn
in
humidity
%
barometer
mb
20260906132250 69 112 0.0 0.0 0.00 0.00 0.00 48 1018.1
20260906130236 68 112 0.0 0.0 0.00 0.00 0.00 47 1017.7
20260906125336 69 112 0.0 1.0 0.00 0.00 0.00 47 1017.7
20260906124354 68 247 0.0 0.0 0.00 0.00 0.00 47 1017.7
20260906123352 68 247 0.0 0.0 0.00 0.00 0.00 48 1017.6
20260906120536 66 337 1.0 2.0 0.00 0.00 0.00 53 1017.7
20260906115551 67 337 0.0 0.0 0.00 0.00 0.00 51 1017.7
20260906114552 67 337 0.0 0.0 0.00 0.00 0.00 50 1017.5
20260906113635 67 337 0.0 0.0 0.00 0.00 0.00 50 1017.4
20260906112636 67 337 0.0 0.0 0.00 0.00 0.00 50 1017.2
20260906110653 67 337 2.0 3.0 0.00 0.00 0.00 50 1017.1
20260906105736 67 292 1.0 1.0 0.00 0.00 0.00 50 1017.0
20260906104736 67 292 0.0 0.0 0.00 0.00 0.00 49 1017.0
20260906102735 68 270 0.0 0.0 0.00 0.00 0.00 47 1017.1
20260906101736 69 202 0.0 0.0 0.00 0.00 0.00 46 1017.0
20260906100752 69 180 1.0 3.0 0.00 0.00 0.00 43 1016.9
20260906095752 68 22 1.0 2.0 0.00 0.00 0.00 47 1016.8
20260906094736 68 22 2.0 4.0 0.00 0.00 0.00 47 1016.8
20260906093753 69 22 0.0 0.0 0.00 0.00 0.00 45 1016.7
20260906091838 69 112 0.0 0.0 0.00 0.00 0.00 47 1016.7
20260906090852 70 112 0.0 0.0 0.00 0.00 0.00 43 1016.8
20260906085836 70 112 0.0 0.0 0.00 0.00 0.00 40 1016.7
20260906084837 70 225 0.0 0.0 0.00 0.00 0.00 43 1016.7
20260906083934 70 225 0.0 0.0 0.00 0.00 0.00 43 1016.7
20260906082951 70 225 0.0 0.0 0.00 0.00 0.00 42 1016.7
20260906082037 71 210 0.0 0.0 0.00 0.00 0.00 40 1016.7
20260906080135 71 22 0.0 0.0 0.00 0.00 0.00 41 1016.8
20260906075152 70 22 0.0 2.0 0.00 0.00 0.00 41 1016.8
20260906074250 71 22 0.0 0.0 0.00 0.00 0.00 41 1016.8
20260906073250 72 22 0.0 0.0 0.00 0.00 0.00 40 1016.8
20260906072236 72 22 0.0 0.0 0.00 0.00 0.00 38 1016.8
20260906071253 73 22 0.0 0.0 0.00 0.00 0.00 36 1016.8
20260906064335 73 292 0.0 0.0 0.00 0.00 0.00 38 1016.7
20260906063335 73 292 0.0 0.0 0.00 0.00 0.00 38 1016.6
20260906062351 74 292 0.0 0.0 0.00 0.00 0.00 35 1016.7
20260906060435 75 22 0.0 1.0 0.00 0.00 0.00 34 1016.5
20260906055521 76 180 0.0 0.0 0.00 0.00 0.00 32 1016.6
20260906054521 76 201 0.0 0.0 0.00 0.00 0.00 30 1016.6
20260906052622 76 292 0.0 0.0 0.00 0.00 0.00 33 1016.6
20260906051719 76 292 2.0 2.0 0.00 0.00 0.00 33 1016.6
20260906050720 76 22 2.0 2.0 0.00 0.00 0.00 32 1016.4
20260906050619 76 22 2.0 2.0 0.00 0.00 0.00 32 1016.3
20260906045621 76 360 2.0 2.0 0.00 0.00 0.00 32 1016.4
20260906044636 76 270 0.0 2.0 0.00 0.00 0.00 35 1016.3
20260906043719 76 270 0.0 0.0 0.00 0.00 0.00 34 1016.1
20260906043636 77 270 0.0 0.0 0.00 0.00 0.00 34 1016.1
20260906041719 78 247 0.0 0.0 0.00 0.00 0.00 30 1016.1
20260906040719 79 247 0.0 0.0 0.00 0.00 0.00 30 1016.1
20260906035818 80 247 0.0 0.0 0.00 0.00 0.00 28 1016.0
20260906034820 80 247 0.0 0.0 0.00 0.00 0.00 27 1015.9
20260906033819 82 247 0.0 0.0 0.00 0.00 0.00 26 1015.7
20260906032834 82 247 0.0 0.0 0.00 0.00 0.00 25 1015.5
20260906030836 85 180 0.0 0.0 0.00 0.00 0.00 20 1015.5
20260906025920 86 180 0.0 0.0 0.00 0.00 0.00 19 1015.4
20260906024020 87 202 1.0 2.0 0.00 0.00 0.00 17 1015.2
20260906023021 88 225 2.0 3.0 0.00 0.00 0.00 18 1015.2
20260906022020 89 225 1.0 3.0 0.00 0.00 0.00 17 1014.9
20260906021020 89 225 4.0 6.0 0.00 0.00 0.00 16 1014.9
20260906020038 90 239 5.0 8.0 0.00 0.00 0.00 16 1014.9
20260906015118 91 243 5.0 7.0 0.00 0.00 0.00 16 1014.9
20260906014118 91 247 3.0 8.0 0.00 0.00 0.00 15 1014.9
20260906013135 92 226 5.0 9.0 0.00 0.00 0.00 16 1014.9
20260906012219 92 230 6.0 9.0 0.00 0.00 0.00 16 1014.9
20260906011218 93 237 8.0 13.0 0.00 0.00 0.00 16 1014.9
20260906010218 93 209 6.0 10.0 0.00 0.00 0.00 15 1014.9
20260906005235 93 237 9.0 12.0 0.00 0.00 0.00 14 1014.9
20260906004220 93 240 8.0 10.0 0.00 0.00 0.00 14 1014.7
20260906003234 94 231 11.0 14.0 0.00 0.00 0.00 14 1014.7
20260906000219 95 227 8.0 11.0 0.00 0.00 0.00 15 1014.6
20260905235219 94 238 8.0 13.0 0.00 0.00 0.00 15 1014.6
20260905234219 94 230 10.0 14.0 0.00 0.00 0.00 14 1014.6
20260905233218 94 234 12.0 20.0 0.00 0.00 0.00 15 1014.7
20260905232219 95 246 10.0 14.0 0.00 0.00 0.00 15 1014.8
20260905231220 94 201 8.0 16.0 0.00 0.00 0.00 15 1014.9
20260905230237 95 231 15.0 25.0 0.00 0.00 0.00 16 1014.9
20260905225335 95 244 10.0 20.0 0.00 0.00 0.00 15 1014.7
20260905224336 96 238 6.0 10.0 0.00 0.00 0.00 15 1015.0
20260905223320 95 228 13.0 19.0 0.00 0.00 0.00 15 1014.9
20260905222335 95 228 9.0 15.0 0.00 0.00 0.00 16 1015.4
20260905221420 95 237 9.0 17.0 0.00 0.00 0.00 16 1015.3
20260905215520 95 240 11.0 17.0 0.00 0.00 0.00 16 1015.6
20260905214618 95 250 7.0 10.0 0.00 0.00 0.00 15 1015.7
20260905213619 94 247 1.0 2.0 0.00 0.00 0.00 15 1015.9
20260905212718 94 237 8.0 12.0 0.00 0.00 0.00 16 1016.0
20260905211735 94 245 7.0 9.0 0.00 0.00 0.00 15 1016.2
20260905210820 94 200 10.0 19.0 0.00 0.00 0.00 15 1016.4
20260905205836 94 241 8.0 13.0 0.00 0.00 0.00 16 1016.4
20260905204918 94 212 9.0 13.0 0.00 0.00 0.00 16 1016.4
20260905203938 95 201 9.0 14.0 0.00 0.00 0.00 15 1016.6
20260905203018 94 187 4.0 7.0 0.00 0.00 0.00 15 1016.7
20260905202020 93 228 6.0 11.0 0.00 0.00 0.00 15 1016.7
20260905201019 93 256 6.0 9.0 0.00 0.00 0.00 16 1016.6
20260905200118 93 219 9.0 14.0 0.00 0.00 0.00 16 1016.7
20260905200037 94 223 10.0 17.0 0.00 0.00 0.00 15 1016.7
20260905195119 94 197 8.0 12.0 0.00 0.00 0.00 16 1016.9
20260905194218 94 220 4.0 6.0 0.00 0.00 0.00 17 1017.0
20260905193218 93 157 0.0 0.0 0.00 0.00 0.00 17 1017.1
20260905193118 93 154 1.0 4.0 0.00 0.00 0.00 17 1017.1
20260905192120 93 178 3.0 4.0 0.00 0.00 0.00 16 1017.2
20260905192019 93 127 4.0 8.0 0.00 0.00 0.00 16 1017.2
20260905191036 91 114 2.0 4.0 0.00 0.00 0.00 17 1017.4
20260905190919 91 133 1.0 4.0 0.00 0.00 0.00 17 1017.4
20260905184934 92 157 4.0 5.0 0.00 0.00 0.00 17 1017.8
20260905183018 93 105 3.0 6.0 0.00 0.00 0.00 17 1018.0
20260905181120 90 85 1.0 5.0 0.00 0.00 0.00 17 1018.2
20260905180218 91 2 1.0 5.0 0.00 0.00 0.00 16 1018.2
20260905175220 91 84 3.0 4.0 0.00 0.00 0.00 17 1018.2
20260905174222 89 169 1.0 2.0 0.00 0.00 0.00 18 1018.2
20260905173220 89 162 1.0 3.0 0.00 0.00 0.00 18 1018.3
20260905172220 86 322 1.0 2.0 0.00 0.00 0.00 21 1018.4
20260905171219 86 202 0.0 0.0 0.00 0.00 0.00 21 1018.4
20260905170217 85 222 4.0 4.0 0.00 0.00 0.00 21 1018.4
20260905165234 84 247 1.0 3.0 0.00 0.00 0.00 22 1018.5
20260905163233 82 202 0.0 2.0 0.00 0.00 0.00 23 1018.5
20260905162233 82 216 2.0 4.0 0.00 0.00 0.00 23 1018.5
20260905161220 81 167 1.0 4.0 0.00 0.00 0.00 24 1018.5
20260905160220 80 204 1.0 2.0 0.00 0.00 0.00 24 1018.5
20260905155318 79 225 1.0 2.0 0.00 0.00 0.00 23 1018.5
20260905154318 77 247 0.0 0.0 0.00 0.00 0.00 25 1018.5
20260905154235 77 247 0.0 1.0 0.00 0.00 0.00 25 1018.5
20260905153218 77 270 0.0 1.0 0.00 0.00 0.00 26 1018.5
20260905152234 77 247 0.0 0.0 0.00 0.00 0.00 29 1018.7
20260905151333 75 247 0.0 0.0 0.00 0.00 0.00 30 1018.5
20260905145435 72 247 0.0 0.0 0.00 0.00 0.00 32 1018.6
20260905144435 70 247 0.0 0.0 0.00 0.00 0.00 33 1018.8
20260905143534 68 247 0.0 0.0 0.00 0.00 0.00 34 1018.8
20260905141519 64 247 0.0 0.0 0.00 0.00 0.00 37 1018.8
20260905140534 62 247 1.0 4.0 0.00 0.00 0.00 44 1018.8
20260905135517 61 22 0.0 0.0 0.00 0.00 0.00 46 1018.5
20260905134536 60 22 0.0 0.0 0.00 0.00 0.00 45 1018.2
20260905133618 60 22 1.0 3.0 0.00 0.00 0.00 44 1018.1